Location: Castrojimeno
(41.3966°N, 3.8473°W)
Time: 05:37:47
(UTC+00:00)

Cosmos 2360 Rocket - Pass Details

Date: 15 May 2026
Orbit: 831 x 845 km, 71.0° (Epoch: 6 June)

Event Time Altitude Azimuth Distance (km) Brightness Sun altitude
Rises 20:02:37 0° 351° (N) 3,413 6.0 -6.6°
Reaches altitude 10° 20:06:58 10° 22° (NNE) 2,474 4.8 -7.2°
Maximum altitude 20:09:01 12° 44° (NE) 2,340 4.4 -7.6°
Drops below altitude 10° 20:11:03 10° 65° (ENE) 2,469 4.3 -7.9°
Enters shadow 20:13:59 - 88° (E) 3,036 4.6 -8.3°
